[[{"header":{"parameterUnit":"m.s-1","parameterCategory":1,"la1":30.2991,"la2":30.254,"lo1":-89.0895,"lo2":-89.0444,"dy":0.0017,"dx":0.0017,"nx":28,"ny":28,"refTime":"2025-07-11T09:00:00:Z","depth":0,"parameterNumber":2,"parameterNumberName":"U-component_of_WINDS"},"data":[0,0,0,0,0,0,0,0,0,0,0,0,0,0,0,0,0,0,0,0,0,0,0,0,0,0,0,0,0,0,0,0,0,0,0,0,0,0,0,0,0,0,0,0,0,0,0,0,0,0,0,0,0,0,0,0,0,0,0.8496,0.8497,0,0.8596,0.8597,0.8598,0.8639,0.8639,0.8639,0.8639,0.8741,0.8744,0.8747,0,0,0,0,0,0,0,0,0,0,0,0,0,0.8339,0.8342,0.8496,0.8497,0.8499,0.8596,0.8597,0.8599,0.8639,0.8639,0.8639,0.8639,0.874,0.8743,0.8747,0,0,0,0,0,0,0,0,0,0,0,0,0,0.842,0.8343,0.8496,0.8531,0.8535,0.8596,0.8597,0.8599,0.8639,0.8639,0.8639,0.8639,0.8739,0.8743,0.8747,0.8781,0,0,0.8761,0.8763,0,0,0,0,0,0,0,0,0.8415,0.8426,0.8524,0.8528,0.8533,0.8605,0.8579,0.866,0.864,0.86,0.8639,0.8638,0.8696,0.8704,0.8723,0.8786,0.879,0.8761,0.8764,0.8766,0.8767,0,0,0,0,0,0,0,0.841,0.8421,0.8536,0.8526,0.8531,0.8541,0.8552,0.8595,0.8648,0.8603,0.8606,0.8618,0.8698,0.8719,0.8726,0.8792,0.8761,0.8765,0.8768,0.8769,0.8885,0.8885,0,0,0,0,0,0,0.8398,0.8417,0.8533,0.8539,0.8472,0.8544,0.8556,0.8582,0.8648,0.8658,0.8618,0.8619,0.8712,0.8721,0.873,0.8773,0.8766,0.877,0.8772,0.8885,0.8885,0.8886,0,0,0,0,0,0,0.8395,0.8408,0.8528,0.8479,0.8495,0.8547,0.8576,0.8584,0.8605,0.8659,0.8669,0.8629,0.8712,0.8724,0.8768,0.8777,0.8772,0.8776,0.8884,0.8885,0.8885,0.8859,0,0,0,0,0,0,0.839,0.8407,0.8421,0.8479,0.8497,0.8565,0.8576,0.8587,0.8613,0.8615,0.8672,0.8682,0.8712,0.8761,0.8772,0.8783,0.8779,0.8884,0.8884,0.8885,0.8859,0.8858,0.8858,0,0,0,0,0,0.8384,0.8409,0.8421,0.8435,0.8515,0.8566,0.8576,0.8611,0.8613,0.8627,0.8661,0.868,0.8774,0.8765,0.8778,0.879,0.8883,0.8884,0.8885,0.8859,0.8859,0.8858,0,0,0,0,0,0,0.8352,0.8418,0.8431,0.8476,0.8515,0.8572,0.8591,0.8609,0.8648,0.8649,0.8691,0.8703,0.8744,0.8771,0.876,0.8825,0.883,0.8833,0.8806,0.8805,0.8805,0.8797,0.8783,0,0,0,0,0,0.8349,0.8385,0.8441,0.8475,0.8493,0.8539,0.8562,0.8585,0.8627,0.8644,0.8681,0.8721,0.8759,0.8784,0.8822,0.8863,0.8876,0.8878,0.8877,0.8876,0.8879,0.8901,0.8903,0.8889,0.8889,0.8889,0,0,0.8346,0.8386,0.8406,0.8469,0.8502,0.8537,0.8552,0.8589,0.8615,0.8649,0.8693,0.8722,0.8769,0.8811,0.8831,0.8835,0.8885,0.8877,0.8876,0.888,0.8902,0.8904,0.8905,0.889,0.8889,0.8889,0,0,0.8356,0.8391,0.8423,0.8455,0.8504,0.8534,0.8541,0.8596,0.8616,0.866,0.8686,0.8717,0.8783,0.8815,0.884,0.8861,0.8879,0.8872,0.8869,0.889,0.8891,0.8893,0.8899,0.8901,0.8874,0.8874,0.8874,0,0.8346,0.84,0.8436,0.8472,0.8498,0.8529,0.8561,0.8591,0.865,0.8667,0.867,0.8752,0.8786,0.8835,0.884,0.886,0.8869,0.8866,0.8888,0.889,0.8892,0.8898,0.8901,0.8873,0.8873,0.8874,0.8874,0,0.8383,0.842,0.844,0.8496,0.8524,0.8557,0.8598,0.8623,0.8643,0.8672,0.8716,0.8757,0.8804,0.8818,0.8838,0.887,0.887,0.888,0.8886,0.8891,0.8898,0.8901,0.8872,0.8872,0.8872,0.8873,0,0,0.8378,0.8452,0.8458,0.8484,0.8539,0.8569,0.8602,0.8648,0.8667,0.8707,0.8736,0.879,0.8799,0.8827,0.8851,0.887,0.8883,0.8878,0.8879,0.8877,0.8919,0.8911,0.8913,0.8894,0.8895,0.8896,0.8915,0,0.8396,0.8458,0.8491,0.8539,0.8573,0.8603,0.8632,0.8669,0.8697,0.8729,0.876,0.8797,0.8807,0.8824,0.8844,0.8877,0.8891,0.8876,0.8922,0.8923,0.8909,0.8917,0.8909,0.8925,0.8918,0.8918,0.8919,0,0.8425,0.8464,0.8515,0.8566,0.8581,0.8607,0.8651,0.8681,0.8723,0.8742,0.8772,0.8796,0.8832,0.8834,0.8884,0.8873,0.8893,0.8912,0.8914,0.892,0.8921,0.8923,0.8931,0.8934,0.8924,0.8923,0.8923,0,0.8415,0.8479,0.8518,0.8539,0.8599,0.8616,0.8642,0.8684,0.8708,0.8746,0.8763,0.8804,0.8827,0.8858,0.8892,0.8891,0.8938,0.8944,0.8955,0.8954,0.8964,0.8963,0.8975,0.8977,0.8977,0.8977,0.8976,0,0.8432,0.8462,0.8514,0.8538,0.8572,0.8609,0.8642,0.867,0.8707,0.8736,0.8764,0.8791,0.8834,0.8866,0.8893,0.8929,0.894,0.8955,0.8962,0.8953,0.8951,0.8967,0.8967,0.8977,0.8977,0.8977,0.8977,0,0.8426,0.8463,0.8507,0.856,0.8573,0.8596,0.8641,0.8665,0.8694,0.873,0.8741,0.8786,0.8825,0.8861,0.8914,0.8931,0.8968,0.8977,0.8954,0.8958,0.8966,0.8965,0.899,0.8995,0.8993,0.8993,0.8993,0,0.8434,0.8458,0.8513,0.8535,0.856,0.8594,0.8619,0.8656,0.8681,0.873,0.8747,0.8788,0.8823,0.8884,0.8921,0.8961,0.8971,0.8977,0.8977,0.8967,0.8971,0.8969,0.8971,0.8976,0.8976,0.8976,0.8976,0,0.8445,0.8461,0.8496,0.8537,0.8566,0.8601,0.8636,0.8652,0.8695,0.8721,0.8761,0.8788,0.8841,0.8881,0.8925,0.8951,0.897,0.8975,0.898,0.8971,0.8956,0.8964,0.8952,0.8975,0.8975,0.8975,0.8975,0.8975,0.8446,0.8468,0.851,0.8548,0.8578,0.861,0.8634,0.8666,0.87,0.8745,0.8765,0.8805,0.8845,0.8906,0.8932,0.8963,0.8968,0.8975,0.8976,0.8977,0.8975,0.8951,0.8972,0.8972,0.8972,0.8972,0.8972,0,0.8458,0.8486,0.852,0.8568,0.8597,0.8612,0.8652,0.8675,0.871,0.8746,0.8779,0.8825,0.8863,0.8903,0.8944,0.8961,0.8971,0.8971,0.897,0.8976,0.8969,0.8961,0.8962,0.8962,0.8962,0.8962,0.8962,0.8962,0.8467,0.8505,0.8526,0.8578,0.8606,0.8646,0.8667,0.8696,0.8725,0.8774,0.8806,0.8832,0.8869,0.8912,0.8948,0.8959,0.8972,0.8969,0.8982,0.8976,0.8976,0.8977,0.8969,0.8972,0.8972,0.8986,0.8986,0.8986]},{"header":{"parameterUnit":"m.s-1","parameterCategory":1,"la1":30.2991,"la2":30.254,"lo1":-89.0895,"lo2":-89.0444,"dy":0.0017,"dx":0.0017,"nx":28,"ny":28,"refTime":"2025-07-11T09:00:00:Z","depth":0,"parameterNumber":3,"parameterNumberName":"V-component_of_WINDS"},"data":[0,0,0,0,0,0,0,0,0,0,0,0,0,0,0,0,0,0,0,0,0,0,0,0,0,0,0,0,0,0,0,0,0,0,0,0,0,0,0,0,0,0,0,0,0,0,0,0,0,0,0,0,0,0,0,0,0,0,3.8766,3.8766,0,3.8748,3.8748,3.8748,3.8673,3.8671,3.8669,3.8668,3.8649,3.865,3.8651,0,0,0,0,0,0,0,0,0,0,0,0,0,3.8734,3.8735,3.8766,3.8766,3.8766,3.8748,3.8748,3.8748,3.8673,3.8671,3.8669,3.8667,3.8648,3.865,3.8651,0,0,0,0,0,0,0,0,0,0,0,0,0,3.8735,3.8736,3.8766,3.8727,3.8723,3.8748,3.8748,3.8748,3.8674,3.8671,3.8668,3.8666,3.8648,3.865,3.8651,3.8714,0,0,3.8656,3.8657,0,0,0,0,0,0,0,0,3.8735,3.8737,3.8733,3.8729,3.8725,3.871,3.873,3.8736,3.8674,3.8692,3.8668,3.8665,3.8671,3.8671,3.8673,3.8713,3.8712,3.8656,3.8657,3.8658,3.8659,0,0,0,0,0,0,0,3.8736,3.8737,3.8759,3.8733,3.8728,3.8709,3.8706,3.8731,3.8697,3.869,3.8685,3.8684,3.8669,3.8672,3.8672,3.8712,3.8656,3.8658,3.8659,3.866,3.8798,3.8801,0,0,0,0,0,0,3.8741,3.8738,3.876,3.8759,3.8724,3.8712,3.8709,3.8718,3.8696,3.869,3.8686,3.868,3.867,3.867,3.8671,3.874,3.8658,3.866,3.8661,3.8795,3.8799,3.8802,0,0,0,0,0,0,3.8741,3.8744,3.876,3.8747,3.8747,3.8715,3.8726,3.8719,3.8721,3.8693,3.8686,3.8696,3.8668,3.8669,3.8703,3.8739,3.866,3.8662,3.8792,3.8796,3.88,3.8881,0,0,0,0,0,0,3.874,3.8744,3.8768,3.8748,3.8748,3.8793,3.8728,3.872,3.8725,3.8717,3.87,3.8695,3.8666,3.8701,3.8705,3.874,3.8663,3.8789,3.8794,3.8799,3.8875,3.8887,3.8898,0,0,0,0,0,3.8739,3.8792,3.877,3.8773,3.8778,3.8796,3.8796,3.8762,3.8728,3.8751,3.8732,3.8695,3.8735,3.8705,3.8709,3.8745,3.8786,3.8793,3.8799,3.887,3.8885,3.8897,0,0,0,0,0,0,3.8818,3.8789,3.8764,3.8812,3.8807,3.8783,3.8811,3.878,3.8784,3.8777,3.8735,3.8731,3.8771,3.8761,3.8729,3.8802,3.8754,3.8761,3.8807,3.8821,3.8832,3.8833,3.8665,0,0,0,0,0,3.8842,3.8859,3.8832,3.8877,3.8876,3.8844,3.8851,3.8825,3.8818,3.8816,3.8799,3.8794,3.8804,3.8812,3.8821,3.8873,3.8867,3.89,3.8911,3.8921,3.8927,3.8951,3.8964,3.8821,3.8821,3.8821,0,0,3.8889,3.8875,3.8889,3.8892,3.8886,3.8903,3.8843,3.8865,3.8878,3.8819,3.8849,3.8837,3.8828,3.8871,3.8889,3.8864,3.8965,3.8929,3.8936,3.8937,3.8959,3.8972,3.8984,3.8825,3.8825,3.8824,0,0,3.8985,3.8977,3.9012,3.9006,3.8996,3.8974,3.8983,3.8964,3.8953,3.8983,3.8938,3.8953,3.8973,3.8967,3.8967,3.9058,3.9023,3.9063,3.9122,3.9146,3.9157,3.9167,3.9197,3.9209,3.9069,3.9069,3.9069,0,3.9045,3.9071,3.9034,3.9058,3.906,3.9008,3.9042,3.9038,3.9031,3.9033,3.9006,3.9028,3.9019,3.9058,3.908,3.9083,3.9089,3.9064,3.9158,3.9168,3.9176,3.9205,3.9216,3.9074,3.9073,3.9073,3.9072,0,3.9144,3.9163,3.9192,3.9186,3.9191,3.9221,3.9188,3.9197,3.9171,3.9152,3.9182,3.9168,3.9172,3.918,3.9155,3.9215,3.9199,3.9166,3.9116,3.9195,3.9221,3.9232,3.908,3.9079,3.9077,3.9076,0,0,3.9289,3.9261,3.9273,3.9268,3.9252,3.9265,3.9292,3.9295,3.9303,3.93,3.9319,3.9337,3.9305,3.9305,3.9279,3.93,3.937,3.9263,3.9262,3.9282,3.9433,3.9457,3.947,3.9348,3.935,3.9351,3.9433,0,3.9378,3.9421,3.9388,3.9436,3.9451,3.9401,3.9423,3.9416,3.9399,3.9408,3.9389,3.9401,3.9359,3.9358,3.9378,3.9358,3.94,3.9352,3.9364,3.9365,3.9366,3.9484,3.9509,3.9587,3.9443,3.9445,3.9446,0,3.9488,3.9489,3.9538,3.9517,3.9522,3.9543,3.9542,3.9552,3.9542,3.9527,3.9527,3.9494,3.9517,3.9469,3.9499,3.9467,3.947,3.9461,3.9463,3.9461,3.9409,3.9483,3.9611,3.9622,3.9462,3.946,3.9459,0,3.9585,3.9599,3.963,3.9628,3.9604,3.962,3.9611,3.9598,3.9601,3.96,3.9601,3.9604,3.9604,3.9606,3.9574,3.9543,3.9607,3.9558,3.9594,3.9595,3.9609,3.9608,3.9737,3.9615,3.9615,3.9614,3.9614,0,3.9687,3.9719,3.9673,3.9692,3.9725,3.9686,3.972,3.9706,3.9694,3.9709,3.9666,3.968,3.9638,3.9648,3.9623,3.965,3.9651,3.9639,3.9632,3.9642,3.9643,3.9642,3.9635,3.9617,3.9617,3.9616,3.9616,0,3.9801,3.9772,3.9801,3.9776,3.9771,3.9796,3.9774,3.979,3.9769,3.9788,3.979,3.9758,3.9766,3.9735,3.9739,3.9722,3.9761,3.9746,3.9765,3.9759,3.9796,3.9793,3.9928,3.9942,3.9813,3.9814,3.9815,0,3.9867,3.989,3.9867,3.9873,3.9866,3.9877,3.9879,3.9842,3.9846,3.9835,3.9851,3.9856,3.9858,3.9874,3.9851,3.9853,3.9836,3.9883,3.9836,3.9844,3.9834,3.9832,3.9833,3.9893,3.9894,3.9895,3.9897,0,3.9986,3.9969,3.9975,3.9975,3.9979,3.9977,3.9973,3.998,3.9939,3.9946,3.9954,3.9956,3.9959,3.9963,3.996,3.995,3.9916,3.9912,3.992,3.9929,3.9938,3.9931,3.9789,3.9908,3.9907,3.9906,3.9906,3.9905,4.0076,4.0093,4.0078,4.0085,4.0077,4.0074,4.0086,4.0067,4.0073,4.0072,4.005,4.0061,4.0048,4.004,4.0033,4.0041,4.0019,4.0032,4.0034,4.0038,4.0043,3.9938,4.0041,4.0041,4.004,4.004,4.004,0,4.019,4.0178,4.0185,4.0179,4.0184,4.0152,4.0144,4.015,4.0161,4.0152,4.0154,4.0162,4.0166,4.0143,4.0143,4.0154,4.0138,4.0155,4.0153,4.015,4.0064,4.0056,4.0168,4.0168,4.0168,4.0168,4.0167,4.0167,4.025,4.0276,4.0258,4.028,4.0267,4.0278,4.0276,4.0272,4.0264,4.0274,4.0277,4.0262,4.0246,4.0245,4.0247,4.024,4.0241,4.0263,4.025,4.0169,4.0157,4.0145,4.0137,4.0264,4.0264,4.0335,4.0336,4.0337]}]]